Content
SEND FEEDBACK

Daily
Averages
Monthly
Summary
United States of America

KLAGETOH, ARIZONA


Home > North America > United States > Arizona
Elevation: 6755 feet     Latitude: 35 39N     Longitude: 109 03W

WEATHER
 
SELECT A DAY
Number of Records: 147,758;   Date Range: 12/3/98 - 7/23/14
 
SHARE

PRINT THIS DATA

[ ← Previous Day ]
WEATHER ALMANAC - JANUARY 3, 2013
[ Next Day → ]
[ °C ]   °F
Weather ElementAverageHighLow
Temperature4.7 °F25 °F (12:53 pm)-13 °F (7:53 am)
Dewpoint-3.4 °F9 °F (12:53 pm)-18 °F (7:53 am)
Humidity71.4 %87 % (8:53 am)48 % (4:53 pm)
Barometer30.45 in30.56 in (7:53 pm)30.35 in (1:53 am)
Wind Speed3 mph10.4 mph (2:53 pm)
Weather ElementAverage
Visibility9.9 mi
Wind DirectionENE (60 °)

Weather ElementTotal
Precipitation---
Heating Degree Days59 (Base 65)
Averaged from 23 records on January 3, 2013
WEATHER CONDITIONS BREAKOUT
WIND DIRECTION BREAKOUT
WEATHER BY HOUR - JANUARY 3, 2013
[ °C ]   °F
Local TimeTemperatureDewpointHumidityBarometerVisibilityWind DirectionWind SpeedGust SpeedPrecipitationEventsConditions
1:53 AM-7.1 °F-11.0 °F83 %30.35 in10.0 miSouth (190°)3.5 mphClear
2:53 AM-9.0 °F-13.0 °F83 %30.36 in10.0 miCalmClear
3:53 AM-9.9 °F-14.1 °F82 %30.38 in10.0 miCalmClear
4:53 AM-9.0 °F-14.1 °F79 %30.38 in10.0 miCalmClear
5:53 AM-11.0 °F-15.0 °F83 %30.43 in10.0 miCalmClear
6:53 AM-11.9 °F-17.0 °F78 %30.48 in10.0 miCalmPartly Cloudy
7:53 AM-13.0 °F-18.0 °F78 %30.53 in10.0 miCalmClear
8:53 AM-5.1 °F-8.0 °F87 %30.53 in10.0 miCalmClear
9:53 AM3.0 °F0.0 °F87 %30.52 in10.0 miCalmClear
10:53 AM12.9 °F3.9 °F67 %30.46 in10.0 miCalmClear
11:53 AM24.1 °F8.1 °F51 %30.40 in10.0 miEast (80°)6.9 mphClear
12:53 PM25.0 °F9.0 °F51 %30.39 in10.0 miEast (100°)6.9 mphClear
1:53 PM25.0 °F9.0 °F51 %30.39 in10.0 miNE (40°)9.2 mphClear
2:53 PM25.0 °F8.1 °F49 %30.40 in10.0 miNE (50°)10.4 mph0.00 inClear
3:53 PM24.1 °F8.1 °F51 %30.41 in10.0 miEast (90°)10.4 mphClear
4:53 PM23.0 °F6.1 °F48 %30.41 in10.0 miENE (70°)4.6 mphClear
5:53 PM17.1 °F6.1 °F62 %30.46 in10.0 miENE (60°)6.9 mphClear
6:53 PM12.9 °F5.0 °F71 %30.48 in10.0 miWNW (300°)3.5 mphClear
7:53 PM3.0 °F-0.9 °F84 %30.56 in10.0 miSSW (200°)3.5 mphClear
8:53 PM3.0 °F-2.9 °F76 %30.53 in10.0 miCalmClear
9:53 PM-2.9 °F-8.0 °F79 %30.53 in10.0 miSSW (200°)3.5 mphClear
10:53 PM-4.0 °F-8.0 °F83 %30.49 in10.0 miCalmClear
11:53 PM-6.0 °F-11.0 °F79 %30.45 in8.0 miCalmClear
Hourly data recorded from KRQE, located miles away from Klagetoh, Arizona







STORIES FROM OUR PARTNERS